Tracking 29892 objects as of 21-Nov-2024
HD Live streaming from Space Station
objects crossing your sky now

STARLINK-2101

Track STARLINK-2101 now!
10-day predictions
STARLINK-2101 is classified as:


NORAD ID: 47381
Int'l Code: 2021-005AJ
Perigee: 553.2 km
Apogee: 555.2 km
Inclination: 53.1 °
Period: 95.6 minutes
Semi major axis: 6925 km
RCS: Unknown
Launch date: January 20, 2021
Source: United States (US)
Launch site: AIR FORCE EASTERN TEST RANGE (AFETR)
Your satellite tracking list
Your tracking list is empty




NASA's NSSDC Master Catalog

Two Line Element Set (TLE):
1 47381U 21005AJ  24325.50425553  .00017775  00000-0  12075-2 0  9990
2 47381  53.0538   5.4066 0001459  79.4489 280.6665 15.06451450212885
Source of the keplerian elements: AFSPC